Погода в Белом Яре

Россия / Ханты-Мансийский автономный округ - Югра     61°15′38″N   73°15′08″E
темп.,
°C
ветер,
м/с
пор.,
м/с
влажн.,
%
обл.,
%
осадки,
мм/ч
давл.,
гПа
погр.,
м
27 января, ср
ср2723:00−18ю2497100 1.9 1013206
02:00−16зсз239798 0.3 1013140
05:00−20ссз489497 0.3 1015220
08:00−26ссз379598 0.0 1020140
11:00−26ссз479298 0.0 1023265
14:00−28с359283 0.0 1026210
17:00−33с229174 0.0 102819
20:00−31св129193 0.0 102936
28 января, чт
чт2823:00−30в239196 0.0 1029113
02:00−29вюв3598100 0.2 1028204
05:00−28вюв4797100 0.5 1027226
08:00−27вюв5998100 0.4 1024250
11:00−25вюв5898100 1.9 1021295
14:00−22юв5998100 2.6 1018270
17:00−20вюв3599100 4.4 1016174
20:00−20в4698100 1.1 1013160
29 января, пт
пт2923:00−20всв3599100 2.6 1012130
02:00−21св2298100 0.8 101473
05:00−24с129887 0.9 101720
08:00−26ссз239744 0.0 101931
11:00−25ссз359667 0.0 1022239
14:00−26ссз369460 0.0 1025284
17:00−31с349533 0.0 103076
20:00−34ссв24940 0.0 103262
30 января, сб
сб3023:00−35св23940 0.0 103449
02:00−36св239420 0.0 103624
05:00−36всв359538 0.0 103791
08:00−36всв369585 0.0 1037130
11:00−34в479571 0.0 1037192
14:00−32в5895100 0.0 1036232
17:00−30в61094100 0.0 1035256
20:00−29вюв61193100 0.0 1033292
31 января, вс
вс3123:00−27вюв61292100 0.0 1031323
02:00−26вюв6139598 0.1 1028337
05:00−25вюв6129599 0.1 1026355
08:00−24вюв61196100 0.0 1024369
11:00−22юв4996100 0.1 1022342
14:00−20юв3698100 0.2 1021305
17:00−19юв3597100 0.7 1021181
20:00−20ююв239988 0.1 102136